DECAYED

STARLINK-30200, 57306 (Decayed)

Orbit data source: Space-Track

STARLINK-30200, 57306 was a payload satellite owned by SpaceX/Seattle (US) in LEO that was launched on Mon, 10 Jul 2023 UTC via an FALCON 9 launch vehicle from the Air Force Eastern Test Range (AFETR). Payload-class satellites include a variety of spacecraft equipped with specific instruments for various scientific and technological missions. These include communications satellites like Starlink; space stations such as the ISS; scientific satellites like the Hubble; Earth observation satellites from companies like Planet Labs, Umbra, and HawkEye 360; GPS; miniature CubeSats for education and research; and military/defense satellites.

Not visible in the next 10 days
Identifier
57306, 2023-096S
Orbit
Decayed
Country
Flag of USUS
Related business
Manufacturer
SpaceX/Seattle
Mission
Decayed Commercial Communications
Bus & Motor
STARLINK V2M, Unknown motor
Mass
730 kg wet, ~700 kg dry
Launch date (UTC)
2023-07-10 (3 years ago)
Launch vehicle
FALCON 9
Launch site
Air Force Eastern Test Range (AFETR)
Object type
Payload
Rocket body
Debris
Shape & HBR
Box + 2 Pan, 17.7 m
Radar Cross Section
33.884 m², Large (>1 m²)

Expand to show TLE details & history
Last TLE update: 4 months ago

TLE from 4 months ago
0 STARLINK-30200
1 57306U 23096S   26054.81944766  .10351120  90838-5  44405-2 0  9998
2 57306  42.9579 210.9355 0017923 314.3193  45.6222 16.21308952145648
Epoch: 2026-02-23T19:40Z
TLE epoch observation values (Epoch: 2026-02-23T19:40:00.277Z)
Latitude
-0.00007°
Longitude
122.22642°
Altitude
207.508 km
Speed
7.789 km/s
True Right ascension
14h 03m 44s
True Declination
0° 00' 00"
Sunlit
Object was in full shadow at epoch
Visualization orbit readout
Latitude
Unknown
Longitude
Unknown
Altitude
Unknown
Speed
Unknown
Apparent Right ascension
Unknown
Apparent Declination
Unknown
Sunlit
N/A
Visualization observer readout
Local Sidereal Time
21:40:26
Azimuth
Unknown
Elevation
Unknown
Doppler factor
Unknown
Orbital elements
Apogee altitude
229.854 km
Perigee altitude
206.209 km
Semi-major axis
6,596.168 km
Eccentricity
0.00179
Inclination
42.9579°
RAAN
210.9355°
Arg. of periapsis
314.3193°
True anomaly
45.76923°
Mean anomaly
45.6222°
Eccentric anomaly
45.69569°
Mean motion
4.0514 °/min
Orbital period
88.86 mins
BSTAR
0.0044405
Loading maneuver chart data...
Computing Atmospheric mass density...

Documentation

Showing up to 5 results
|